Theta_e
312 313 313 313 314 314 314 314 315 314 313 314 317 314 314 315 315 317 324 328 321 316 314 315 314 311 311 310 305 309 308 308 307 302 303 305 303 306 303 304 302 301 299 300 300 297 294 310 309 306 311 315 316 322
312 312 313 313 313 314 314 314 315 314 313 314 316 314 314 314 314 314 321 327 325 319 316 319 317 316 315 314 313 312 309 307 309 306 307 307 302 304 302 300 307 301 305 304 303 303 310 311 311 314 316 316 316 320
312 312 312 313 313 313 313 314 314 315 313 313 316 313 313 314 314 313 322 324 324 316 314 314 313 318 320 318 318 310 313 312 312 313 311 309 300 307 299 301 302 306 309 308 305 308 309 310 313 314 316 317 320 321
311 311 312 313 313 313 313 313 314 314 313 313 316 313 313 314 313 312 321 324 323 318 310 311 319 316 319 320 318 318 316 315 313 313 309 307 305 308 305 305 304 308 308 304 305 310 311 311 312 314 315 317 319 322
310 311 312 313 313 313 313 313 314 314 313 314 316 312 312 312 312 316 323 326 326 318 310 311 316 317 318 318 316 317 316 315 312 308 306 306 310 307 310 308 303 308 305 303 303 311 310 312 313 313 313 315 317 318
309 310 310 312 312 313 313 313 313 314 313 313 315 312 312 311 311 321 314 324 327 325 315 307 317 315 317 317 316 316 316 315 314 311 311 312 310 308 305 305 307 310 311 312 310 314 312 314 314 314 314 313 316 317
309 310 310 311 313 312 312 313 313 313 313 313 313 310 311 310 315 316 313 318 314 326 315 309 309 315 317 316 317 317 318 316 314 312 312 312 309 308 307 302 305 310 313 314 315 314 312 313 313 315 314 315 313 318
309 310 310 310 312 312 312 313 313 312 313 314 310 310 310 310 311 315 322 313 317 321 320 309 309 310 317 311 310 318 314 315 314 314 312 310 309 308 303 308 309 311 312 313 313 315 314 315 314 314 315 314 313 314
309 309 309 310 312 312 312 312 312 313 313 310 309 310 315 316 315 319 314 314 326 320 311 311 306 304 315 313 316 314 317 309 314 310 310 309 298 289 305 307 309 310 310 310 312 312 311 310 310 310 311 312 312 313
309 309 309 310 311 311 311 312 312 312 309 309 310 313 313 320 316 317 318 314 314 316 316 311 315 308 312 311 310 311 313 310 305 308 310 305 303 309 311 311 312 311 312 311 308 307 308 307 308 309 310 313 313 313
309 309 310 310 311 312 312 313 309 308 308 310 312 315 320 313 319 316 309 307 309 306 311 312 313 309 316 308 308 313 310 309 302 305 304 304 302 307 313 311 313 314 313 312 311 311 311 310 312 312 311 313 314 314
309 309 310 311 311 312 309 308 307 308 313 309 314 315 320 316 313 307 305 308 306 302 310 309 311 314 313 318 311 310 306 307 298 307 303 296 305 312 311 311 312 313 313 312 312 310 310 311 312 312 313 313 314 315
309 309 310 311 312 308 307 308 308 308 308 312 313 312 312 310 298 300 298 302 303 309 311 311 308 312 312 314 311 308 302 302 308 302 301 303 311 313 312 312 312 313 314 313 311 312 312 313 314 312 312 314 314 314
308 308 309 309 308 308 309 309 310 308 309 309 306 294 303 301 303 305 304 305 311 313 312 311 309 309 312 308 309 301 305 305 299 297 299 305 312 314 314 313 312 310 312 312 312 312 312 313 312 313 313 315 315 314
309 308 309 308 309 308 309 308 309 308 308 304 305 295 301 305 309 313 314 314 316 316 313 310 310 310 308 306 307 305 300 297 300 300 307 310 317 317 315 313 313 312 312 312 313 313 313 313 314 314 315 316 314 314
309 308 309 309 309 309 309 309 311 310 308 304 303 302 307 306 305 309 312 312 317 314 314 311 307 305 304 306 302 300 298 297 304 309 312 315 318 319 318 315 314 315 314 314 315 315 315 314 312 312 311 312 311 309
308 309 309 309 309 309 308 308 309 303 304 301 302 306 305 309 308 314 316 317 320 313 307 308 303 303 309 303 301 306 303 308 313 314 316 318 319 319 319 316 315 317 316 317 316 315 313 311 310 307 306 308 309 310
309 308 309 308 310 309 311 308 305 301 298 303 301 304 307 308 308 310 313 317 315 313 312 307 311 305 302 301 303 309 311 313 317 316 316 317 317 317 318 317 317 317 316 314 313 311 310 308 306 305 308 308 308 309
309 309 309 309 310 311 308 308 310 302 304 306 308 309 309 308 310 312 315 316 318 321 317 313 307 305 306 310 310 311 315 315 315 316 319 317 317 317 316 316 315 314 311 310 309 307 307 308 307 307 307 308 306 307
308 308 309 309 309 310 304 308 314 306 303 308 310 308 309 309 313 311 311 313 314 313 311 307 307 311 312 314 317 317 318 321 317 315 315 314 314 314 311 311 309 310 308 309 307 304 307 307 308 307 308 307 308 306
308 309 309 309 311 310 308 309 308 310 311 310 315 313 312 313 312 312 312 316 313 310 308 311 313 315 321 322 322 320 320 320 317 317 316 313 312 309 310 309 309 307 305 306 305 305 304 307 307 307 306 306 308 309
310 310 309 307 305 307 307 310 308 311 309 310 310 311 309 309 311 313 317 312 311 312 315 314 315 317 319 322 322 324 323 323 323 318 308 307 305 304 304 307 306 304 308 306 306 307 307 308 308 308 307 307 305 308
308 309 308 305 303 301 300 313 306 307 302 305 310 305 306 307 312 317 311 312 313 317 318 318 321 323 321 323 324 324 323 322 319 318 314 310 304 305 305 305 308 309 306 307 309 308 307 303 304 307 308 307 307 307
307 306 304 303 303 297 308 305 309 307 307 304 303 301 305 311 313 311 305 310 315 322 320 320 320 320 322 322 320 322 321 319 318 314 309 305 304 307 309 312 311 309 309 310 309 307 307 307 304 307 307 306 305 306
297 296 298 292 305 301 300 302 303 303 301 304 303 303 308 312 306 304 305 311 316 317 319 321 322 321 319 321 322 318 318 317 313 309 312 310 309 308 308 310 308 310 310 308 306 306 306 307 307 306 305 305 303 304
290 299 295 300 301 301 302 299 301 302 303 301 303 307 311 306 300 300 308 314 315 319 320 322 320 319 319 321 319 316 315 318 317 310 305 308 307 306 307 309 306 307 309 309 307 306 306 306 306 305 304 304 297 303
293 299 304 309 307 307 305 306 308 303 299 301 305 305 306 300 301 308 318 318 319 319 320 321 320 318 319 319 318 316 318 318 316 313 310 308 311 313 313 309 307 308 310 309 308 307 306 306 305 305 304 305 305 304
301 305 300 305 305 306 301 301 300 300 303 307 307 301 300 297 297 311 317 317 315 318 319 320 322 321 321 319 314 313 313 311 311 310 308 311 316 316 315 313 313 299 310 311 310 309 308 307 306 305 305 304 304 305
303 306 306 303 304 305 305 303 303 307 312 307 303 302 304 309 313 315 317 315 315 315 317 317 317 319 318 316 314 312 310 307 305 302 303 306 308 310 314 313 311 311 311 311 297 303 309 308 307 307 306 306 306 306
302 307 303 302 301 300 304 308 309 315 317 314 314 313 315 313 316 318 319 317 315 315 316 317 316 316 313 312 310 310 311 311 308 306 305 305 306 309 310 310 310 310 310 310 309 308 296 305 302 307 305 305 304 304
306 304 302 301 300 304 306 309 310 311 312 310 312 309 311 313 316 320 320 317 316 315 314 313 313 313 312 311 310 309 309 312 313 312 311 310 310 309 310 309 309 309 309 309 309 308 307 306 306 305 304 303 303 302
303 302 301 300 302 308 309 307 306 305 306 307 307 313 313 313 310 313 316 315 313 312 306 310 311 310 313 314 314 313 301 313 313 313 311 310 309 310 310 309 309 308 308 307 307 307 307 306 304 304 304 304 304 304
305 304 304 303 303 304 308 308 307 306 308 309 310 314 314 313 307 312 316 317 315 311 310 311 312 314 314 312 312 311 304 312 307 297 296 299 300 303 309 309 308 307 307 306 306 306 306 305 305 305 304 304 304 305
Wind_Speed
13 14 14 14 14 14 13 12 11 9 10 13 12 11 13 11 10 7 2 2 6 2 6 2 3 3 4 3 5 6 6 6 4 3 2 2 2 2 3 1 3 4 4 3 3 5 4 9 2 5 7 6 9 2
14 14 15 15 15 14 13 12 11 9 9 11 12 11 11 11 9 8 4 1 3 5 8 3 7 4 4 6 4 3 5 2 4 1 1 2 3 3 2 3 2 3 5 5 5 6 5 6 8 6 8 8 6 7
14 15 15 15 14 13 13 13 12 10 8 8 12 9 10 10 8 7 4 3 5 4 6 8 9 5 5 4 6 5 3 3 3 4 1 2 3 2 3 3 3 3 1 2 4 7 5 4 4 7 9 9 7 2
14 15 16 15 13 13 12 13 11 10 7 7 10 8 9 9 8 7 4 3 5 3 4 6 5 4 4 3 3 4 7 4 4 4 3 3 2 2 1 3 4 4 5 4 4 3 3 5 5 5 7 8 8 5
14 15 15 14 13 13 13 12 11 10 8 6 8 8 8 9 8 7 4 1 3 6 2 6 7 4 5 5 6 5 4 3 3 4 4 2 2 4 2 3 5 6 5 5 2 7 4 7 3 3 4 6 6 5
14 14 14 13 13 13 13 12 11 9 7 5 7 7 7 8 7 5 5 4 0 3 4 6 5 7 6 5 6 5 4 2 1 3 2 2 3 5 2 3 4 5 3 2 0 2 2 4 3 4 1 3 4 3
14 14 13 14 12 12 13 12 10 8 6 5 6 6 8 7 5 4 5 5 4 3 4 3 5 6 8 5 4 4 3 2 3 2 1 1 4 5 3 3 4 7 6 6 4 4 6 5 4 2 3 1 3 1
14 14 14 14 11 12 11 8 6 6 5 4 6 6 9 7 8 6 3 5 5 4 4 3 3 6 9 6 5 2 3 3 2 1 2 3 3 3 5 8 5 7 7 7 7 6 1 1 3 1 1 2 4 6
13 14 14 13 10 9 8 6 6 6 4 2 6 7 5 4 4 3 6 6 2 5 3 3 5 4 7 4 2 5 2 3 2 3 2 2 1 5 8 6 8 10 8 5 8 6 6 5 3 3 4 5 6 7
13 15 14 12 9 8 7 6 6 4 2 3 4 4 5 4 8 4 4 5 5 5 4 4 2 4 7 6 6 3 2 0 2 3 2 4 5 12 6 6 6 9 8 6 7 7 6 5 6 3 2 2 4 6
14 15 13 10 8 7 7 5 5 3 2 3 4 1 4 1 4 4 4 5 5 5 6 6 8 6 3 6 5 2 2 3 2 4 3 3 4 5 8 11 8 9 9 7 4 1 2 2 1 3 4 1 3 3
13 13 11 8 5 4 3 2 3 4 1 1 2 0 3 4 4 5 6 5 6 6 5 9 9 4 5 2 3 4 2 3 3 4 4 3 4 6 9 13 12 11 11 9 6 5 5 4 3 2 0 1 2 2
11 11 10 5 1 4 4 0 2 1 3 2 3 4 4 4 3 7 9 6 5 6 7 8 9 6 5 5 2 4 6 2 3 4 4 6 6 7 9 10 12 12 12 10 8 6 6 7 6 4 3 1 1 2
9 9 6 4 4 1 2 3 3 3 2 3 5 2 6 6 6 6 6 4 3 4 9 10 9 6 4 7 3 4 3 4 4 4 5 4 8 9 10 11 13 15 15 13 12 10 9 8 7 5 4 2 1 1
8 7 4 2 4 4 4 5 5 2 3 2 2 4 7 6 3 2 3 2 4 4 9 10 7 5 6 4 4 3 6 5 5 5 3 3 6 9 11 13 14 14 15 13 12 11 10 8 7 6 3 2 1 1
8 6 1 2 6 7 4 5 2 2 2 1 4 7 6 5 7 6 5 5 5 6 9 9 5 4 6 4 7 7 5 5 3 3 1 5 5 6 9 12 13 13 14 13 11 10 8 7 5 6 5 2 0 3
5 1 2 5 4 7 7 1 2 5 1 4 6 6 8 6 5 1 2 5 4 7 8 5 6 7 3 5 7 5 6 3 2 2 1 2 6 7 8 11 12 12 12 11 10 10 10 8 7 5 4 4 4 4
1 2 3 4 4 5 4 3 3 4 7 9 7 6 6 5 5 3 4 5 6 6 4 4 1 7 6 9 8 6 5 5 2 4 4 2 4 6 9 12 13 14 13 12 12 11 10 9 7 6 7 6 5 4
3 2 2 1 3 3 4 6 5 5 9 5 7 6 5 5 4 5 3 4 5 2 3 3 6 7 9 7 7 5 4 3 2 4 1 3 5 8 10 11 13 14 15 14 12 8 8 8 6 6 5 5 4 4
4 6 7 4 4 4 5 3 3 5 4 1 4 5 5 5 3 6 6 6 7 5 5 5 7 8 6 5 4 5 3 1 3 4 3 4 5 9 12 12 10 14 12 11 8 8 8 7 6 5 4 3 3 5
4 3 3 4 3 4 4 2 5 4 4 4 3 4 4 5 6 6 6 6 6 5 6 8 9 8 7 5 3 4 4 5 6 5 6 5 7 8 10 9 14 9 9 9 9 8 6 6 6 5 7 5 4 4
2 3 2 2 3 2 4 4 5 3 4 4 4 5 4 5 6 6 5 7 6 6 7 8 8 7 5 6 6 7 5 5 5 3 2 8 7 8 8 8 5 5 9 9 8 8 7 5 5 5 5 5 3 5
2 3 2 3 4 3 5 2 5 5 5 3 3 3 4 4 1 4 5 6 5 6 6 6 5 5 6 3 4 5 5 6 5 5 7 7 8 8 8 8 7 11 8 8 7 6 6 8 4 5 5 4 4 5
0 2 3 4 6 4 3 5 4 4 4 6 4 6 3 1 3 4 6 5 4 1 4 4 5 5 5 5 6 3 3 4 4 6 7 10 10 9 9 10 9 8 8 8 7 7 8 8 8 7 6 6 6 3
2 3 2 3 3 5 6 5 7 6 6 6 5 4 3 4 3 3 3 1 2 3 3 4 4 3 3 1 1 3 4 6 7 9 10 10 8 7 8 8 9 8 7 8 8 9 8 7 8 7 6 5 4 3
3 7 5 6 5 6 5 4 4 5 2 2 3 3 3 3 5 4 2 1 3 1 2 2 2 3 3 2 2 5 6 6 7 8 5 7 7 8 10 11 9 8 8 8 9 9 9 8 7 7 6 7 3 5
4 7 6 4 4 3 5 3 0 1 4 5 3 3 3 3 2 3 2 2 2 3 2 3 3 4 1 3 4 4 4 5 7 8 7 7 8 9 8 10 11 10 9 9 10 10 9 8 7 7 5 5 7 8
3 5 9 7 6 5 3 1 2 3 1 1 1 4 3 3 4 3 3 4 4 3 2 2 1 1 2 5 6 7 8 8 10 10 6 3 4 5 7 6 5 10 10 10 9 9 9 8 7 6 5 5 6 5
6 6 6 7 6 5 5 5 4 1 4 3 3 4 4 3 3 3 1 2 2 3 1 3 4 4 5 5 6 7 8 8 12 13 12 10 9 7 6 7 7 7 7 9 5 3 9 6 7 7 5 5 5 6
7 6 7 7 9 7 5 5 3 2 3 4 1 3 3 3 1 2 3 2 2 1 3 4 4 4 5 7 7 8 7 7 8 9 8 8 8 10 8 7 7 7 6 6 9 9 8 7 6 6 6 5 6 6
3 5 8 9 11 9 10 9 9 7 6 6 4 5 1 3 3 1 1 1 2 3 4 4 4 4 4 7 8 8 6 4 4 3 2 5 8 7 7 6 5 5 6 8 9 10 11 10 10 8 8 8 6 5
5 9 8 8 8 7 7 7 8 10 9 9 7 3 4 4 3 3 3 2 3 4 3 3 4 5 4 4 5 5 4 7 7 5 6 5 7 7 7 6 6 6 8 9 9 9 11 10 8 7 8 8 7 8
7 6 7 7 6 6 6 6 6 5 4 4 3 2 1 1 3 3 2 1 3 4 4 5 4 1 5 4 5 6 2 5 9 10 9 10 9 6 6 6 6 7 9 9 9 10 10 8 8 8 6 5 6 7
Wind_Direction
300 301 308 312 311 309 305 304 300 301 314 315 320 336 335 341 355 320 28 346 292 289 115 184 131 157 177 243 284 94 222 189 210 223 228 137 237 121 249 335 335 285 281 233 266 260 181 1 188 327 2 330 348 14
301 303 304 307 304 301 300 295 293 285 302 309 313 327 331 331 351 329 256 130 296 288 78 76 70 48 11 1 314 169 355 16 26 164 188 166 188 191 218 215 172 237 344 351 333 42 78 49 54 32 2 342 354 326
300 303 303 303 298 294 295 292 286 280 285 299 305 320 326 323 345 337 305 342 236 192 152 179 147 93 49 13 334 289 144 81 148 337 339 57 198 259 207 223 227 168 215 273 224 132 115 80 78 33 23 15 5 303
302 306 305 299 295 292 289 287 282 275 275 288 298 308 321 318 336 328 281 356 271 290 242 129 158 107 342 65 45 25 101 118 120 243 244 257 216 229 166 22 246 35 165 218 244 166 158 135 82 39 34 27 42 57
300 301 304 298 292 287 286 285 277 267 262 279 294 303 319 317 329 283 262 285 296 296 267 131 132 105 125 118 105 101 124 184 199 199 221 181 61 224 180 270 243 183 210 214 334 79 308 84 78 32 27 34 46 73
297 298 306 303 291 288 284 279 271 259 255 269 288 305 312 310 330 244 211 169 49 295 256 192 86 151 132 134 114 88 78 77 309 278 92 113 55 270 228 235 235 197 224 307 176 125 110 116 112 44 341 29 59 62
301 303 307 311 295 289 283 275 259 248 248 267 278 304 302 311 280 268 0 36 0 267 242 179 178 153 166 176 156 133 124 88 328 103 216 183 168 257 251 221 219 176 181 167 174 182 192 183 129 50 23 341 156 103
299 302 307 305 297 293 288 273 245 243 241 259 277 294 293 284 270 246 140 217 261 257 248 231 116 170 190 196 173 196 185 188 106 107 185 219 147 316 251 233 186 188 178 185 190 206 338 176 233 201 274 283 229 215
300 304 303 302 293 287 281 258 242 238 223 256 287 297 236 219 214 101 128 168 219 294 235 226 188 166 170 188 114 165 253 223 112 203 167 220 75 231 231 211 187 183 194 192 197 206 214 222 245 248 249 235 247 248
307 304 303 298 286 277 271 240 242 192 182 295 252 210 193 120 119 160 178 195 185 200 230 245 219 144 207 179 181 175 203 277 234 96 155 214 244 239 228 218 186 174 186 182 190 202 214 235 236 235 250 277 283 272
306 309 303 294 274 268 266 211 178 178 164 191 209 174 64 123 206 213 187 208 168 212 207 212 206 153 202 193 160 241 110 156 238 118 255 248 256 195 178 187 185 176 184 190 220 144 213 261 218 210 196 260 291 324
310 312 315 290 258 267 180 185 219 201 241 58 14 152 181 207 204 215 194 177 214 215 168 189 177 183 139 203 187 180 217 188 232 131 240 272 235 156 169 178 177 182 184 183 186 182 185 179 165 155 7 337 10 11
310 321 335 314 194 157 141 82 339 123 163 183 217 207 188 154 202 211 190 191 200 175 165 159 161 156 150 216 130 193 205 197 128 218 234 232 117 170 173 173 177 179 183 180 175 173 171 180 182 200 167 161 314 333
304 322 323 46 128 131 82 5 4 161 238 217 187 235 215 187 231 204 219 204 144 191 166 179 150 183 123 185 147 203 89 197 227 228 242 190 184 185 180 180 182 186 187 187 184 181 182 181 186 179 190 162 200 225
305 319 321 227 219 212 282 318 329 224 249 216 228 250 220 253 274 240 250 201 161 176 169 163 161 192 158 149 204 127 184 227 218 229 239 146 170 180 182 188 190 189 188 190 191 188 192 191 196 187 178 168 105 168
305 315 229 266 223 195 238 305 295 250 239 127 249 251 240 252 239 204 205 201 137 173 178 190 150 196 173 199 185 197 209 212 193 181 227 150 168 181 194 195 194 189 189 191 191 190 189 190 178 157 151 126 344 320
311 66 19 62 79 164 168 249 300 24 5 235 233 235 270 300 289 229 169 165 154 174 188 179 198 178 144 206 203 195 216 230 203 242 275 199 215 194 196 189 185 179 178 175 162 156 155 144 148 153 165 120 109 88
199 115 169 158 219 153 173 210 142 178 236 241 247 246 214 257 267 208 174 157 182 202 194 225 332 198 212 214 211 207 223 247 327 324 314 224 201 195 179 177 166 161 153 149 148 142 147 142 153 148 148 141 146 125
124 170 302 274 275 272 199 189 238 243 224 254 247 251 242 252 225 261 170 172 230 242 238 207 221 225 237 239 257 259 255 243 281 324 309 209 189 180 162 164 154 141 137 142 144 153 156 170 149 160 148 173 108 72
245 233 246 259 238 241 223 201 216 266 259 148 234 240 232 235 209 206 204 193 202 208 221 220 238 242 253 282 313 282 297 204 257 252 204 162 162 162 153 144 149 136 129 138 150 164 155 158 165 166 147 121 168 127
201 133 139 181 232 249 285 248 228 255 310 270 289 233 235 191 214 201 189 176 205 222 227 229 248 261 288 324 295 255 239 239 255 278 282 175 168 147 152 141 138 131 132 175 173 165 197 178 164 169 164 193 149 158
109 144 145 199 243 240 263 227 288 331 256 263 252 223 240 208 199 205 166 204 235 230 229 250 252 270 253 233 250 224 267 237 232 217 119 125 146 141 127 135 121 138 194 174 179 170 188 162 163 171 187 163 199 201
214 185 191 182 236 211 261 216 240 222 242 231 211 237 211 209 122 148 222 225 249 242 255 254 263 251 270 250 233 231 229 229 226 206 147 143 115 119 130 140 177 203 162 177 185 170 147 121 157 201 152 184 193 175
342 213 231 199 212 253 219 224 220 245 234 221 239 248 220 156 167 223 243 223 228 117 216 225 223 222 198 213 234 241 202 209 148 125 124 144 142 159 176 185 178 171 184 162 175 151 148 176 134 190 195 179 204 181
185 217 183 246 229 235 233 227 211 211 240 204 226 226 178 175 220 235 238 173 180 227 205 190 205 223 266 71 143 128 164 172 142 147 163 157 151 165 181 154 182 175 159 164 163 163 163 159 188 183 175 190 177 166
216 202 204 209 204 220 222 240 218 220 223 251 280 334 227 222 221 237 148 21 54 92 149 179 186 172 187 241 171 156 157 170 152 134 140 140 155 155 181 165 166 159 171 161 158 165 169 188 191 182 183 136 97 268
233 204 193 225 280 279 263 232 63 291 246 220 201 228 226 224 221 80 70 38 24 63 9 307 264 256 298 149 121 99 130 140 171 140 141 169 211 207 175 173 183 166 179 175 166 173 175 181 183 192 185 184 156 212
265 279 229 194 217 222 245 340 208 259 330 4 142 31 22 86 276 324 1 25 25 19 342 15 6 254 171 121 123 131 119 114 114 106 102 168 197 166 190 173 89 126 172 189 186 185 194 184 183 190 186 196 171 174
228 209 225 239 226 216 230 230 249 156 142 99 134 190 198 181 226 237 301 341 323 273 145 120 110 120 124 123 119 130 130 135 143 150 169 158 154 159 177 157 154 166 184 177 103 8 201 203 186 189 171 193 179 171
233 225 242 242 240 239 234 232 260 250 180 207 315 149 138 185 194 217 245 239 247 109 81 102 140 148 143 138 133 146 161 167 171 183 184 172 165 146 162 169 175 187 191 183 172 153 108 158 138 167 188 178 183 194
231 216 237 247 251 248 253 258 261 253 249 262 262 280 6 134 136 137 150 300 188 149 143 146 128 123 147 144 151 164 154 149 131 71 27 134 121 145 149 142 146 158 166 156 156 164 168 178 187 183 179 201 172 248
211 228 227 240 250 236 236 248 240 236 240 231 234 211 178 191 141 121 135 200 165 146 93 113 144 126 128 142 129 94 358 139 153 155 167 153 123 134 141 142 151 153 157 165 171 161 175 184 175 183 179 195 206 204
214 214 220 251 256 235 200 204 200 204 196 198 175 173 115 36 98 89 108 328 52 75 73 29 23 69 135 156 128 112 103 105 84 79 67 96 120 139 156 158 155 158 161 161 154 153 167 173 174 181 194 197 201 214